Flag for Germany Weather past 2 weeks in Lingen (Ems), Lower Saxony, Germany

Now
67 °F

Mild.


Feels Like: 67 °F
Forecast: 61 / 74 °F
Wind: 2 mph from West

Location: Meppen

Current Time: Jul 5, 2015 at 2:39:20 AM

Latest Report: Jul 5, 2015 at 2:00 AM


Visibility: 4 mi

Pressure: 30.12 "Hg

Humidity: 82%

Dew point: 61 °F

Location of Lingen (Ems)Location

Historic Weather in Lingen (Ems) — Graph

°F

Lingen (Ems) temperature yesterday

Maximum temperature yesterday: 94 °F (at 4:00 PM)
Minimum temperature yesterday: 65 °F (at 6:00 AM)
Average temperature yesterday: 79 °F

Past Weeks' High & Low Weather Summary

 TemperatureHumidityPressure
High96 °F (Jul 2, 6:00 PM)95% (Jun 23, 3:00 AM)30.27 "Hg (Jun 23, 3:00 AM)
Low46 °F (Jun 23, 4:00 AM)27% (Jul 2, 4:00 PM)29.68 "Hg (Jun 22, 10:00 PM)
Average64 °F69%30.07 "Hg
* Reported Jun 20 1:00 AM — Jul 5 1:00 AM, Lingen (Ems), Weather by CustomWeather, © 2015

Note: Actual official high and low records may vary slightly from our data, if they occured in-between our weather recording intervals... More about our weather records

Advertising

Lingen (Ems) weather history for previous 24 hours

 ConditionsComfort  
Time TempWeatherWind HumidityBarometerVisibility
1:00 AM
Sun, Jul 5
67 °FMild.N/A77%30.11 "Hg4 mi
12:00 AM69 °FMild.2 mph76%30.10 "Hg4 mi
10:00 PM
Sat, Jul 4
76 °FMild.2 mph66%30.10 "Hg4 mi
9:00 PM82 °FWarm.2 mph52%30.09 "Hg4 mi
7:00 PM88 °FHot.5 mph45%30.06 "Hg4 mi
6:00 PM91 °FHot.6 mph43%30.05 "Hg4 mi
4:00 PM94 °FExtremely hot.6 mph41%30.04 "Hg4 mi
3:00 PM93 °FExtremely hot.5 mph44%30.02 "Hg4 mi
2:00 PM93 °FExtremely hot.3 mph41%30.03 "Hg4 mi
1:00 PM90 °FHot.2 mph51%30.04 "Hg4 mi
12:00 PM86 °FWarm.3 mph57%30.04 "Hg3 mi
10:00 AM79 °FWarm.2 mph65%30.06 "Hg4 mi
9:00 AM74 °FMild.2 mph75%30.08 "Hg3 mi
7:00 AM68 °FMild.2 mph88%30.10 "Hg3 mi
6:00 AM65 °FMild.2 mph92%30.12 "Hg1 mi
4:00 AM65 °FMild.2 mph90%30.14 "Hg2 mi
3:00 AM66 °FMild.2 mph89%30.17 "Hg3 mi
2:00 AM66 °FMild.2 mph88%30.19 "Hg4 mi
Weather by CustomWeather, © 2015

See weather overviewHow to use our weather pages